[[{"header":{"parameterUnit":"m.s-1","parameterCategory":1,"la1":30.2991,"la2":30.254,"lo1":-89.0895,"lo2":-89.0444,"dy":0.0017,"dx":0.0017,"nx":28,"ny":28,"refTime":"2024-10-04T21:00:00:Z","depth":0,"parameterNumber":2,"parameterNumberName":"U-component_of_WINDS"},"data":[0,0,0,0,0,0,0,0,0,0,0,0,0,0,0,0,0,0,0,0,0,0,0,0,0,0,0,0,0,0,0,0,0,0,0,0,0,0,0,0,0,0,0,0,0,0,0,0,0,0,0,0,0,0,0,0,0,0,-3.0856,-3.0857,0,-3.0932,-3.0933,-3.0934,-3.0818,-3.0814,-3.081,-3.0807,-3.0885,-3.0891,-3.0897,0,0,0,0,0,0,0,0,0,0,0,0,0,-3.0612,-3.0617,-3.0856,-3.0857,-3.0858,-3.0932,-3.0933,-3.0934,-3.0819,-3.0814,-3.0809,-3.0805,-3.0883,-3.089,-3.0897,0,0,0,0,0,0,0,0,0,0,0,0,0,-3.0706,-3.0618,-3.0856,-3.0809,-3.0806,-3.0932,-3.0933,-3.0934,-3.082,-3.0814,-3.0808,-3.0802,-3.0881,-3.089,-3.0898,-3.1073,0,0,-3.0925,-3.0929,0,0,0,0,0,0,0,0,-3.0701,-3.0715,-3.0815,-3.0813,-3.0809,-3.086,-3.0875,-3.0981,-3.0822,-3.0815,-3.0807,-3.08,-3.0882,-3.089,-3.0918,-3.1077,-3.108,-3.0926,-3.0931,-3.0935,-3.0937,0,0,0,0,0,0,0,-3.0694,-3.0711,-3.0886,-3.0817,-3.0813,-3.0785,-3.0792,-3.0895,-3.0881,-3.0815,-3.0807,-3.0817,-3.0879,-3.0909,-3.0919,-3.1081,-3.0926,-3.0933,-3.0939,-3.0942,-3.1387,-3.1393,0,0,0,0,0,0,-3.0693,-3.0706,-3.0884,-3.0888,-3.0739,-3.0794,-3.0802,-3.085,-3.088,-3.0879,-3.0822,-3.0812,-3.0897,-3.0908,-3.0921,-3.1127,-3.0935,-3.0943,-3.0948,-3.1381,-3.1389,-3.1396,0,0,0,0,0,0,-3.0688,-3.071,-3.088,-3.0795,-3.0815,-3.0805,-3.0859,-3.0854,-3.0884,-3.0885,-3.0882,-3.0856,-3.0893,-3.0909,-3.1036,-3.1128,-3.0947,-3.0955,-3.1373,-3.1383,-3.1392,-3.1541,0,0,0,0,0,0,-3.0682,-3.0709,-3.0775,-3.0797,-3.082,-3.0995,-3.0865,-3.086,-3.09,-3.0887,-3.0916,-3.0915,-3.089,-3.1023,-3.1045,-3.1137,-3.0962,-3.1365,-3.1377,-3.1389,-3.1528,-3.1555,-3.1578,0,0,0,0,0,-3.0674,-3.0815,-3.0779,-3.0801,-3.0902,-3.1,-3.1013,-3.098,-3.0908,-3.0974,-3.0975,-3.0914,-3.1115,-3.1037,-3.106,-3.1157,-3.1359,-3.1374,-3.1388,-3.1517,-3.155,-3.1577,0,0,0,0,0,0,-3.0804,-3.0817,-3.0778,-3.093,-3.0965,-3.098,-3.1063,-3.1016,-3.1072,-3.1058,-3.1015,-3.1022,-3.1159,-3.117,-3.1084,-3.1327,-3.1225,-3.1245,-3.1315,-3.1346,-3.137,-3.1365,-3.0969,0,0,0,0,0,-3.085,-3.0928,-3.0935,-3.1069,-3.1089,-3.1074,-3.1115,-3.1087,-3.1121,-3.1135,-3.1145,-3.1181,-3.1252,-3.1299,-3.1365,-3.1529,-3.1534,-3.1607,-3.1632,-3.1652,-3.167,-3.1758,-3.179,-3.1444,-3.1444,-3.1444,0,0,-3.0947,-3.0964,-3.1016,-3.1096,-3.1119,-3.1201,-3.1087,-3.1178,-3.1239,-3.1149,-3.127,-3.1279,-3.1316,-3.1463,-3.1528,-3.1476,-3.1767,-3.1671,-3.1687,-3.1694,-3.1776,-3.1809,-3.1838,-3.1454,-3.1452,-3.1451,0,0,-3.1165,-3.1186,-3.1299,-3.1325,-3.1362,-3.1351,-3.1379,-3.1402,-3.1404,-3.1524,-3.1459,-3.153,-3.1653,-3.1682,-3.1714,-3.1943,-3.1889,-3.1966,-3.2096,-3.2182,-3.2209,-3.2233,-3.2315,-3.2345,-3.1983,-3.1984,-3.1984,0,-3.128,-3.1401,-3.1363,-3.146,-3.1497,-3.1419,-3.1534,-3.1561,-3.1618,-3.1646,-3.1587,-3.174,-3.176,-3.1912,-3.1968,-3.1996,-3.2026,-3.1962,-3.2208,-3.2232,-3.2254,-3.2331,-3.2362,-3.1993,-3.1992,-3.1991,-3.199,0,-3.1541,-3.1626,-3.1713,-3.177,-3.1817,-3.1922,-3.19,-3.1952,-3.192,-3.1915,-3.2039,-3.206,-3.2128,-3.2162,-3.2132,-3.2311,-3.2278,-3.2215,-3.2111,-3.2296,-3.2368,-3.2398,-3.2005,-3.2002,-3.2,-3.1997,0,0,-3.1843,-3.1877,-3.191,-3.1934,-3.197,-3.2035,-3.2137,-3.2203,-3.2248,-3.229,-3.2375,-3.2481,-3.2423,-3.2458,-3.243,-3.2506,-3.2686,-3.2433,-3.2434,-3.248,-3.2884,-3.2931,-3.2966,-3.2651,-3.2657,-3.2661,-3.2881,0,-3.206,-3.2235,-3.2204,-3.2374,-3.2452,-3.2379,-3.2468,-3.25,-3.2498,-3.2564,-3.2562,-3.2638,-3.2556,-3.2576,-3.2648,-3.2649,-3.2767,-3.2633,-3.2729,-3.2733,-3.2722,-3.3004,-3.3054,-3.326,-3.2909,-3.2914,-3.2917,0,-3.2336,-3.2388,-3.2566,-3.2589,-3.262,-3.2701,-3.2759,-3.2823,-3.2857,-3.2851,-3.2891,-3.2849,-3.295,-3.2845,-3.2985,-3.2894,-3.2932,-3.2939,-3.2946,-3.2953,-3.2836,-3.3019,-3.3325,-3.3356,-3.2961,-3.2958,-3.2954,0,-3.2538,-3.2652,-3.2773,-3.2797,-3.2827,-3.2885,-3.29,-3.2928,-3.297,-3.3021,-3.3048,-3.3111,-3.3145,-3.3195,-3.3171,-3.3097,-3.3315,-3.3208,-3.3313,-3.3314,-3.3362,-3.3359,-3.3679,-3.3387,-3.3386,-3.3386,-3.3385,0,-3.2783,-3.2894,-3.2864,-3.2939,-3.3062,-3.3025,-3.3148,-3.3155,-3.3181,-3.3256,-3.3197,-3.3269,-3.3234,-3.3303,-3.3285,-3.3403,-3.3419,-3.3417,-3.3411,-3.3422,-3.3423,-3.3446,-3.3431,-3.3394,-3.3392,-3.3391,-3.3389,0,-3.3029,-3.3013,-3.314,-3.3158,-3.3165,-3.3255,-3.3271,-3.3341,-3.3334,-3.343,-3.345,-3.3441,-3.352,-3.3501,-3.3587,-3.3575,-3.3724,-3.37,-3.3712,-3.3706,-3.3812,-3.3802,-3.4158,-3.4202,-3.3882,-3.3885,-3.3888,0,-3.3186,-3.327,-3.3297,-3.3343,-3.3362,-3.3437,-3.3479,-3.3447,-3.3493,-3.3539,-3.3604,-3.3677,-3.3733,-3.3862,-3.3863,-3.3929,-3.3906,-3.4026,-3.3915,-3.3924,-3.3907,-3.3903,-3.3911,-3.4048,-3.4051,-3.4054,-3.4057,0,-3.3466,-3.3454,-3.3517,-3.3579,-3.3631,-3.3677,-3.3718,-3.3759,-3.373,-3.3785,-3.3865,-3.3909,-3.3996,-3.407,-3.413,-3.4146,-3.4098,-3.4092,-3.4119,-3.4132,-3.4135,-3.4135,-3.3772,-3.4084,-3.4081,-3.4079,-3.4078,-3.4077,-3.3672,-3.3744,-3.3774,-3.3846,-3.3874,-3.3914,-3.398,-3.3982,-3.4048,-3.4116,-3.4093,-3.4184,-3.4216,-3.4292,-3.4315,-3.4386,-3.4341,-3.4381,-3.4391,-3.4401,-3.4414,-3.4124,-3.4397,-3.4396,-3.4395,-3.4395,-3.4394,0,-3.395,-3.3966,-3.4033,-3.4092,-3.4149,-3.4098,-3.414,-3.4192,-3.4272,-3.4306,-3.4363,-3.4454,-3.4526,-3.4533,-3.46,-3.4655,-3.4634,-3.4674,-3.4669,-3.4674,-3.4451,-3.442,-3.4689,-3.4689,-3.4689,-3.4689,-3.4689,-3.4689,-3.4101,-3.4219,-3.4211,-3.4342,-3.4357,-3.4445,-3.4474,-3.451,-3.4537,-3.4642,-3.47,-3.4704,-3.4728,-3.4796,-3.4859,-3.4859,-3.4887,-3.4935,-3.4927,-3.4719,-3.4689,-3.4661,-3.4632,-3.4941,-3.4941,-3.5143,-3.5145,-3.5147]},{"header":{"parameterUnit":"m.s-1","parameterCategory":1,"la1":30.2991,"la2":30.254,"lo1":-89.0895,"lo2":-89.0444,"dy":0.0017,"dx":0.0017,"nx":28,"ny":28,"refTime":"2024-10-04T21:00:00:Z","depth":0,"parameterNumber":3,"parameterNumberName":"V-component_of_WINDS"},"data":[0,0,0,0,0,0,0,0,0,0,0,0,0,0,0,0,0,0,0,0,0,0,0,0,0,0,0,0,0,0,0,0,0,0,0,0,0,0,0,0,0,0,0,0,0,0,0,0,0,0,0,0,0,0,0,0,0,0,0.8792,0.8791,0,0.8763,0.8763,0.8762,0.8739,0.8739,0.8738,0.8738,0.8706,0.8706,0.8705,0,0,0,0,0,0,0,0,0,0,0,0,0,0.8825,0.8825,0.8792,0.8791,0.8791,0.8763,0.8763,0.8762,0.8739,0.8739,0.8738,0.8738,0.8707,0.8706,0.8705,0,0,0,0,0,0,0,0,0,0,0,0,0,0.8805,0.8824,0.8792,0.8776,0.8774,0.8763,0.8763,0.8762,0.8739,0.8739,0.8738,0.8738,0.8707,0.8706,0.8705,0.8706,0,0,0.8702,0.8702,0,0,0,0,0,0,0,0,0.8806,0.8804,0.8779,0.8777,0.8775,0.8754,0.8763,0.8743,0.8739,0.8752,0.8738,0.8738,0.8722,0.872,0.8715,0.8705,0.8703,0.8702,0.8701,0.8701,0.8701,0,0,0,0,0,0,0,0.8807,0.8805,0.878,0.8778,0.8776,0.877,0.8767,0.8759,0.874,0.8751,0.8749,0.8747,0.8721,0.8716,0.8715,0.8703,0.8702,0.8701,0.8701,0.87,0.8694,0.8694,0,0,0,0,0,0,0.8812,0.8806,0.8781,0.8779,0.879,0.877,0.8766,0.8761,0.874,0.8736,0.8747,0.8746,0.8718,0.8716,0.8713,0.8714,0.8701,0.87,0.87,0.8693,0.8694,0.8694,0,0,0,0,0,0,0.8812,0.881,0.8782,0.8792,0.8788,0.877,0.8764,0.8761,0.8756,0.8736,0.8733,0.8745,0.8718,0.8715,0.8709,0.8713,0.87,0.8699,0.8693,0.8693,0.8694,0.8716,0,0,0,0,0,0,0.8813,0.881,0.881,0.8793,0.8788,0.8779,0.8765,0.8761,0.8755,0.8753,0.8734,0.8731,0.8717,0.871,0.8708,0.8711,0.8698,0.8692,0.8693,0.8694,0.8714,0.8717,0.8719,0,0,0,0,0,0.8815,0.8817,0.881,0.8808,0.8788,0.8779,0.8776,0.8761,0.8755,0.8755,0.8743,0.8731,0.8713,0.871,0.8707,0.871,0.8692,0.8693,0.8694,0.8713,0.8716,0.8719,0,0,0,0,0,0,0.8834,0.8814,0.8807,0.8803,0.8793,0.8775,0.8774,0.8765,0.8755,0.8754,0.8735,0.8731,0.8728,0.8718,0.8715,0.8711,0.8701,0.8701,0.8717,0.872,0.8722,0.8724,0.8697,0,0,0,0,0,0.8838,0.8833,0.8815,0.8814,0.8809,0.8793,0.8788,0.8778,0.8767,0.8762,0.8749,0.8738,0.8729,0.8724,0.8715,0.8714,0.8709,0.8714,0.8717,0.8719,0.8719,0.8718,0.872,0.8697,0.8697,0.8697,0,0,0.8846,0.8834,0.8832,0.8818,0.8808,0.8803,0.8789,0.8784,0.878,0.8761,0.8755,0.8745,0.8731,0.8728,0.8726,0.872,0.8725,0.872,0.8722,0.872,0.8719,0.8722,0.8723,0.8698,0.8697,0.8697,0,0,0.8857,0.8848,0.8847,0.8838,0.8825,0.8815,0.8815,0.8799,0.8792,0.8786,0.8772,0.8767,0.8753,0.8744,0.8737,0.8749,0.8737,0.8746,0.8758,0.8757,0.8759,0.8761,0.8765,0.8766,0.8747,0.8747,0.8747,0,0.8868,0.886,0.8847,0.8843,0.8837,0.8821,0.882,0.8812,0.8797,0.8793,0.8787,0.8771,0.876,0.8755,0.8758,0.8753,0.8753,0.8748,0.876,0.8761,0.8763,0.8766,0.8768,0.8748,0.8748,0.8748,0.8748,0,0.8875,0.887,0.887,0.8857,0.8851,0.8848,0.8834,0.883,0.8822,0.8812,0.8807,0.8794,0.8783,0.8781,0.8772,0.8775,0.8772,0.8764,0.8753,0.8766,0.8769,0.8771,0.875,0.8749,0.8749,0.8749,0,0,0.8895,0.8877,0.8877,0.8872,0.8857,0.8853,0.885,0.884,0.8838,0.8828,0.8825,0.8815,0.8808,0.8801,0.879,0.879,0.8801,0.8782,0.8781,0.8786,0.8804,0.881,0.8812,0.8794,0.8794,0.8794,0.8805,0,0.8904,0.8898,0.8887,0.8885,0.888,0.8866,0.8864,0.8855,0.8846,0.8841,0.8831,0.8824,0.8815,0.8811,0.881,0.88,0.8804,0.8799,0.879,0.879,0.8794,0.8814,0.8819,0.883,0.8806,0.8807,0.8807,0,0.8913,0.8907,0.8904,0.8892,0.8889,0.8887,0.8878,0.8874,0.8864,0.8857,0.8851,0.8841,0.8837,0.8828,0.8823,0.882,0.8816,0.881,0.8811,0.8808,0.8799,0.8812,0.8833,0.8835,0.8809,0.8808,0.8808,0,0.8929,0.8919,0.8916,0.8912,0.8898,0.8897,0.889,0.888,0.8876,0.8868,0.8865,0.8857,0.8853,0.8847,0.8834,0.8829,0.8831,0.8821,0.8825,0.8826,0.8825,0.8825,0.8846,0.8824,0.8824,0.8824,0.8824,0,0.894,0.8939,0.8923,0.8922,0.8921,0.8908,0.8907,0.89,0.8891,0.8888,0.8876,0.8873,0.8857,0.8852,0.8843,0.884,0.8838,0.8833,0.883,0.8834,0.8834,0.883,0.8829,0.8824,0.8824,0.8824,0.8824,0,0.8956,0.8946,0.8942,0.893,0.8927,0.8926,0.8915,0.8913,0.8905,0.8901,0.89,0.8886,0.8881,0.8868,0.8859,0.8852,0.8852,0.8848,0.8856,0.8854,0.8859,0.8859,0.8877,0.8879,0.8857,0.8857,0.8857,0,0.8963,0.8962,0.895,0.8948,0.8943,0.8939,0.8935,0.8923,0.8919,0.8909,0.8908,0.8902,0.8896,0.8888,0.8877,0.887,0.8865,0.8872,0.8864,0.8868,0.8865,0.8865,0.8865,0.8874,0.8874,0.8874,0.8874,0,0.8977,0.8973,0.8968,0.8962,0.8958,0.8952,0.8946,0.8944,0.8931,0.8928,0.8922,0.8918,0.891,0.8903,0.8895,0.8889,0.8879,0.8878,0.8878,0.8881,0.8886,0.8883,0.886,0.8877,0.8876,0.8876,0.8876,0.8876,0.8989,0.8988,0.898,0.8975,0.897,0.8965,0.8963,0.8955,0.8951,0.8943,0.8937,0.8932,0.8924,0.8912,0.8907,0.8903,0.8898,0.8899,0.8899,0.8899,0.8901,0.8887,0.8901,0.8901,0.8901,0.8901,0.8901,0,0.9002,0.8997,0.8993,0.8985,0.8982,0.8975,0.8968,0.8966,0.8962,0.8956,0.8951,0.8945,0.894,0.893,0.8924,0.8923,0.8918,0.8921,0.8921,0.892,0.8905,0.8905,0.8925,0.8925,0.8925,0.8925,0.8925,0.8925,0.9008,0.9007,0.9002,0.8998,0.8992,0.8988,0.8985,0.8981,0.8975,0.897,0.8966,0.896,0.8952,0.8946,0.8941,0.8938,0.8936,0.894,0.8936,0.8923,0.892,0.8918,0.8918,0.894,0.894,0.8951,0.8951,0.8951]}]]